AU224 Weather Reports


time (UTC)temp
C
wind
direction
speed
KPH
gust
KPH
rain 1hr
cm
rain 24hr
cm
rain mn
cm
humidity
%
barometer
mb
20260504120109 21 72 0.0 14.5 0.00 0.00 0.00 42 1009.6
20260504081550 18 0 0.0 9.7 0.00 0.00 0.00 48 1011.7
20260504050125 10 0 0.0 0.0 0.00 0.00 0.00 74 1011.7
20260504044548 9 0 0.0 3.2 0.00 0.00 0.00 73 1011.7
20260504043058 9 0 0.0 0.0 0.00 0.00 0.00 68 1011.8
20260504041557 10 0 0.0 0.0 0.00 0.00 0.00 68 1011.8
20260504040058 10 0 0.0 0.0 0.00 0.00 0.00 67 1011.8
20260504034552 10 0 0.0 0.0 0.00 0.00 0.00 67 1011.8
20260504033050 10 0 0.0 0.0 0.00 0.00 0.00 67 1011.9
20260504031617 10 0 0.0 0.0 0.00 0.00 0.00 67 1012.0
20260504030044 10 0 0.0 0.0 0.00 0.00 0.00 67 1011.9
20260504024546 11 0 0.0 0.0 0.00 0.00 0.00 67 1012.1
20260504023040 11 0 0.0 0.0 0.00 0.00 0.00 66 1012.3
20260504021554 11 0 0.0 0.0 0.00 0.00 0.00 65 1012.2
20260504020055 11 0 0.0 0.0 0.00 0.00 0.00 65 1012.2
20260504014557 11 0 0.0 0.0 0.00 0.00 0.00 65 1012.2
20260504013044 11 0 0.0 0.0 0.00 0.00 0.00 64 1012.3
20260504011553 11 0 0.0 0.0 0.00 0.00 0.00 64 1012.2
20260504010044 11 0 0.0 0.0 0.00 0.00 0.00 63 1012.2
20260504004548 11 0 0.0 0.0 0.00 0.00 0.00 61 1012.2
20260504003047 11 0 0.0 0.0 0.00 0.00 0.00 61 1012.4
20260504001559 12 0 0.0 0.0 0.00 0.00 0.00 61 1012.6
20260504000043 12 0 0.0 0.0 0.00 0.00 0.00 60 1012.6
20260503234548 12 0 0.0 0.0 0.00 0.00 0.00 60 1012.6
20260503233044 12 0 0.0 3.2 0.00 0.00 0.00 60 1012.5
20260503231550 12 360 0.0 4.8 0.00 0.00 0.00 60 1012.3
20260503230042 13 0 0.0 0.0 0.00 0.00 0.00 61 1012.2
20260503224552 13 0 0.0 6.4 0.00 0.00 0.00 61 1012.1
20260503223047 13 0 0.0 0.0 0.00 0.00 0.00 59 1012.1
20260503221543 13 0 0.0 6.4 0.00 0.00 0.00 59 1012.0
20260503220045 14 277 1.6 4.8 0.00 0.00 0.00 58 1011.8
20260503214555 15 0 0.0 9.7 0.00 0.00 0.00 57 1011.7
20260503213117 15 288 4.8 12.9 0.00 0.00 0.00 57 1011.6
20260503211605 15 309 9.7 17.7 0.00 0.00 0.00 55 1011.5
20260503210044 15 281 3.2 14.5 0.00 0.00 0.00 52 1011.2
20260503204602 16 148 0.0 6.4 0.00 0.00 0.00 51 1011.1
20260503203057 16 0 0.0 6.4 0.00 0.00 0.00 50 1010.8
20260503201553 17 0 0.0 9.7 0.00 0.00 0.00 49 1010.8
20260503200045 17 0 0.0 6.4 0.00 0.00 0.00 47 1010.6
20260503194550 17 261 6.4 14.5 0.00 0.00 0.00 46 1010.4
20260503193053 17 0 0.0 0.0 0.00 0.00 0.00 46 1010.2
20260503191601 18 0 0.0 0.0 0.00 0.00 0.00 45 1009.7
20260503190047 18 0 0.0 0.0 0.00 0.00 0.00 44 1009.7
20260503184604 19 0 0.0 0.0 0.00 0.00 0.00 44 1009.6
20260503183048 20 0 0.0 0.0 0.00 0.00 0.00 42 1009.6
20260503181550 20 0 0.0 0.0 0.00 0.00 0.00 41 1009.4
20260503180046 20 0 0.0 0.0 0.00 0.00 0.00 39 1009.4
20260503174600 21 0 0.0 0.0 0.00 0.00 0.00 36 1009.4
20260503173041 21 0 0.0 0.0 0.00 0.00 0.00 35 1009.4
20260503171548 21 0 0.0 1.6 0.00 0.00 0.00 36 1009.4